Flag for Germany Weather past 2 weeks in Königswinter, North Rhine-Westphalia, Germany

Now
43 °F

Overcast.


Feels Like: 38 °F
Forecast: 47 / 56 °F
Wind: 10 mph from West

Location: Bonn-Hangelar

Current Time: Oct 22, 2014 at 4:10:35 AM

Latest Report: Oct 22, 2014 at 3:00 AM


Visibility: 16 mi

Pressure: 29.96 "Hg

Humidity: 87%

Dew point: 40 °F

Location of KönigswinterLocation

Historic Weather in Königswinter — Graph

°F

Königswinter temperature yesterday

Maximum temperature yesterday: 53 °F (at 3:00 PM)
Minimum temperature yesterday: 45 °F (at 11:00 PM)
Average temperature yesterday: 50 °F

Past Weeks' High & Low Weather Summary

 TemperatureHumidityPressure
High72 °F (Oct 18, 5:00 PM)98% (Oct 12, 10:00 PM)30.08 "Hg (Oct 12, 10:00 PM)
Low43 °F (Oct 22, 1:00 AM)52% (Oct 14, 4:00 PM)29.53 "Hg (Oct 7, 8:00 AM)
Average57 °F80%29.83 "Hg
* Reported Oct 7 3:00 AM — Oct 22 3:00 AM, Königswinter, Weather by CustomWeather, © 2014

Note: Actual official high and low records may vary slightly from our data, if they occured in-between our weather recording intervals... More about our weather records

Advertising

Königswinter weather history for previous 24 hours

 ConditionsComfort  
Time TempWeatherWind HumidityBarometerVisibility
3:00 AM
Oct 22
43 °FOvercast.10 mph87%29.96 "Hg16 mi
2:00 AM44 °FOvercast.12 mph83%29.93 "Hg14 mi
1:00 AM43 °FRain. Low clouds.7 mph93%29.91 "Hg1 mi
12:00 AM45 °FPassing clouds.12 mph83%29.86 "Hg16 mi
11:00 PM
Oct 21
45 °FPassing clouds.13 mph84%29.83 "Hg19 mi
10:00 PM45 °FPassing clouds.13 mph79%29.79 "Hg28 mi
9:00 PM45 °FPassing clouds.12 mph80%29.76 "Hg25 mi
8:00 PM46 °FOvercast.13 mph80%29.73 "Hg25 mi
7:00 PM46 °FOvercast.14 mph83%29.70 "Hg25 mi
6:00 PM48 °FOvercast.12 mph79%29.64 "Hg22 mi
5:00 PM50 °FOvercast.10 mph85%29.62 "Hg25 mi
4:00 PM53 °FRain showers. Low clouds.12 mph96%29.55 "Hg4 mi
3:00 PM53 °FLight rain. Low clouds.14 mph92%29.57 "Hg11 mi
2:00 PM53 °FOvercast.15 mph86%29.61 "Hg28 mi
1:00 PM52 °FLight rain. Passing clouds.8 mph88%29.66 "Hg9 mi
12:00 PM53 °FLight rain. Overcast.13 mph82%29.71 "Hg4 mi
11:00 AM53 °FPassing clouds.7 mph81%29.73 "Hg3 mi
10:00 AM53 °FOvercast.10 mph80%29.78 "Hg19 mi
9:00 AM52 °FOvercast.12 mph83%29.80 "Hg16 mi
8:00 AM51 °FPassing clouds.10 mph85%29.82 "Hg22 mi
7:00 AM52 °FOvercast.9 mph87%29.85 "Hg37 mi
6:00 AM51 °FPassing clouds.8 mph90%29.86 "Hg31 mi
5:00 AM51 °FOvercast.8 mph90%29.89 "Hg14 mi
4:00 AM52 °FLow clouds.8 mph91%29.92 "Hg10 mi
Weather by CustomWeather, © 2014

See weather overviewHow to use our weather pages